Location: Mahannah Oil Field
(37.4664°N, 96.6003°W)
Time: 02:07:56
(UTC+00:00)

Tiros 1 despin weight - Pass Details

Date: 29 January 2021
Orbit: 593 x 642 km, 48.2° (Epoch: 25 February)

Event Time Altitude Azimuth Distance (km) Brightness Sun altitude
Rises 17:56:19 0° 225° (SW) 2,917 ? 33.9°
Reaches altitude 10° 17:58:39 10° 222° (SW) 2,006 ? 34.0°
Maximum altitude 18:03:13 63° 142° (SE) 697 ? 34.1°
Drops below altitude 10° 18:07:45 10° 61° (ENE) 1,986 ? 34.3°
Sets 18:10:03 0° 59° (ENE) 2,885 ? 34.4°
